| time (UTC) | temp C | wind direction | speed KPH | gust KPH | rain 1hr cm | rain 24hr cm | rain mn cm | humidity % | barometer mb |
| 20260508084601 | 9 | 70 | 1.6 | 8.0 | 0.00 | 0.61 | 0.00 | 88 | 1018.6 |
| 20260508083100 | 9 | 74 | 4.8 | 6.4 | 0.00 | 0.61 | 0.00 | 89 | 1018.6 |
| 20260508081551 | 9 | 16 | 4.8 | 8.0 | 0.00 | 0.61 | 0.00 | 90 | 1018.6 |
| 20260508080053 | 9 | 63 | 3.2 | 6.4 | 0.00 | 0.61 | 0.00 | 92 | 1018.5 |
| 20260508074547 | 8 | 38 | 0.0 | 6.4 | 0.00 | 0.61 | 0.00 | 93 | 1018.4 |
| 20260508073044 | 8 | 34 | 3.2 | 6.4 | 0.00 | 0.61 | 0.00 | 94 | 1018.2 |
| 20260508071544 | 8 | 40 | 3.2 | 8.0 | 0.00 | 0.61 | 0.00 | 95 | 1018.2 |
| 20260508070041 | 8 | 39 | 1.6 | 6.4 | 0.00 | 0.61 | 0.00 | 96 | 1018.1 |
| 20260508064541 | 8 | 39 | 3.2 | 8.0 | 0.00 | 0.61 | 0.00 | 96 | 1017.9 |
| 20260508063055 | 8 | 19 | 1.6 | 4.8 | 0.00 | 0.61 | 0.00 | 96 | 1017.8 |
| 20260508061536 | 8 | 19 | 1.6 | 4.8 | 0.00 | 0.61 | 0.00 | 96 | 1017.7 |
| 20260508060033 | 8 | 19 | 1.6 | 6.4 | 0.00 | 0.61 | 0.00 | 97 | 1017.6 |
| 20260508054532 | 8 | 19 | 1.6 | 6.4 | 0.00 | 0.61 | 0.00 | 97 | 1017.4 |
| 20260508053031 | 7 | 15 | 1.6 | 4.8 | 0.00 | 0.61 | 0.00 | 96 | 1017.3 |
| 20260508051530 | 7 | 15 | 1.6 | 4.8 | 0.00 | 0.61 | 0.00 | 97 | 1017.3 |
| 20260508050037 | 7 | 15 | 1.6 | 4.8 | 0.00 | 0.61 | 0.00 | 97 | 1017.3 |
| 20260508044528 | 7 | 15 | 0.0 | 0.0 | 0.00 | 0.61 | 0.00 | 96 | 1017.3 |
| 20260508043031 | 7 | 15 | 0.0 | 0.0 | 0.00 | 0.61 | 0.00 | 96 | 1017.2 |
| 20260508041526 | 7 | 15 | 0.0 | 0.0 | 0.00 | 0.61 | 0.00 | 96 | 1017.1 |
| 20260508040034 | 7 | 15 | 0.0 | 0.0 | 0.00 | 0.61 | 0.00 | 96 | 1017.1 |
| 20260508034524 | 7 | 15 | 0.0 | 0.0 | 0.00 | 0.61 | 0.00 | 96 | 1017.1 |
| 20260508033023 | 7 | 15 | 0.0 | 1.6 | 0.00 | 0.61 | 0.00 | 96 | 1017.0 |
| 20260508031522 | 7 | 15 | 3.2 | 4.8 | 0.00 | 0.61 | 0.00 | 96 | 1016.9 |
| 20260508030025 | 7 | 15 | 0.0 | 0.0 | 0.00 | 0.61 | 0.00 | 96 | 1016.8 |
| 20260508024519 | 7 | 15 | 0.0 | 0.0 | 0.00 | 0.61 | 0.00 | 96 | 1016.9 |
| 20260508023019 | 7 | 15 | 0.0 | 0.0 | 0.00 | 0.61 | 0.00 | 96 | 1016.8 |
| 20260508021518 | 7 | 15 | 0.0 | 0.0 | 0.00 | 0.61 | 0.00 | 96 | 1016.9 |
| 20260508020027 | 7 | 15 | 0.0 | 0.0 | 0.00 | 0.61 | 0.00 | 96 | 1016.9 |
| 20260508014518 | 7 | 15 | 0.0 | 0.0 | 0.00 | 0.61 | 0.00 | 96 | 1016.8 |
| 20260508013017 | 7 | 15 | 0.0 | 0.0 | 0.00 | 0.61 | 0.00 | 96 | 1016.8 |
| 20260508011519 | 7 | 15 | 0.0 | 0.0 | 0.00 | 0.61 | 0.00 | 96 | 1016.8 |
| 20260508010017 | 7 | 15 | 0.0 | 0.0 | 0.00 | 0.61 | 0.00 | 96 | 1016.7 |
| 20260508004514 | 7 | 15 | 0.0 | 0.0 | 0.00 | 0.61 | 0.00 | 96 | 1016.7 |
| 20260508003014 | 7 | 15 | 0.0 | 0.0 | 0.00 | 0.61 | 0.00 | 96 | 1016.6 |
| 20260508001533 | 7 | 15 | 0.0 | 0.0 | 0.00 | 0.61 | 0.00 | 96 | 1016.7 |
| 20260508000012 | 7 | 15 | 0.0 | 0.0 | 0.00 | 0.61 | 0.00 | 96 | 1016.8 |
| 20260507234515 | 7 | 15 | 0.0 | 0.0 | 0.00 | 0.61 | 0.00 | 96 | 1016.9 |
| 20260507233015 | 7 | 15 | 0.0 | 0.0 | 0.00 | 0.61 | 0.00 | 96 | 1016.8 |
| 20260507231511 | 7 | 15 | 0.0 | 0.0 | 0.00 | 0.61 | 0.00 | 96 | 1016.8 |
| 20260507230010 | 7 | 15 | 0.0 | 0.0 | 0.00 | 0.61 | 0.00 | 96 | 1016.9 |
| 20260507224509 | 7 | 15 | 0.0 | 0.0 | 0.00 | 0.61 | 0.00 | 95 | 1016.8 |
| 20260507223008 | 7 | 15 | 0.0 | 0.0 | 0.00 | 0.61 | 0.00 | 95 | 1016.7 |
| 20260507221507 | 7 | 15 | 0.0 | 0.0 | 0.00 | 0.61 | 0.00 | 95 | 1016.7 |
| 20260507220009 | 7 | 15 | 0.0 | 0.0 | 0.00 | 0.61 | 0.00 | 95 | 1016.6 |
| 20260507214504 | 7 | 15 | 0.0 | 0.0 | 0.00 | 0.61 | 0.61 | 95 | 1016.5 |
| 20260507213003 | 7 | 15 | 0.0 | 0.0 | 0.00 | 0.61 | 0.61 | 95 | 1016.4 |
| 20260507211503 | 7 | 15 | 0.0 | 0.0 | 0.00 | 0.61 | 0.61 | 95 | 1016.4 |
| 20260507210003 | 7 | 15 | 0.0 | 0.0 | 0.00 | 0.61 | 0.61 | 95 | 1016.4 |
| 20260507204500 | 7 | 15 | 0.0 | 0.0 | 0.00 | 0.61 | 0.61 | 95 | 1016.3 |
| 20260507203101 | 7 | 15 | 0.0 | 0.0 | 0.00 | 0.61 | 0.61 | 95 | 1016.2 |
| 20260507201659 | 7 | 15 | 0.0 | 0.0 | 0.00 | 0.61 | 0.61 | 95 | 1016.1 |
| 20260507200109 | 7 | 15 | 0.0 | 1.6 | 0.03 | 0.61 | 0.61 | 95 | 1015.9 |
| 20260507194555 | 7 | 15 | 0.0 | 0.0 | 0.05 | 0.61 | 0.61 | 95 | 1015.7 |
| 20260507193055 | 7 | 15 | 0.0 | 1.6 | 0.10 | 0.61 | 0.61 | 94 | 1015.7 |
| 20260507191557 | 7 | 15 | 0.0 | 1.6 | 0.10 | 0.61 | 0.61 | 94 | 1015.5 |
| 20260507190054 | 7 | 15 | 0.0 | 3.2 | 0.13 | 0.58 | 0.58 | 94 | 1015.3 |
| 20260507184552 | 7 | 15 | 1.6 | 4.8 | 0.10 | 0.56 | 0.56 | 94 | 1015.2 |
| 20260507183047 | 8 | 15 | 1.6 | 4.8 | 0.10 | 0.51 | 0.51 | 94 | 1015.0 |
| 20260507181519 | 7 | 15 | 1.6 | 4.8 | 0.10 | 0.51 | 0.51 | 94 | 1014.8 |
| 20260507180019 | 7 | 15 | 0.0 | 4.8 | 0.10 | 0.46 | 0.46 | 93 | 1014.7 |
| 20260507174527 | 7 | 15 | 1.6 | 3.2 | 0.15 | 0.46 | 0.46 | 93 | 1014.7 |
| 20260507173019 | 7 | 15 | 1.6 | 4.8 | 0.18 | 0.41 | 0.41 | 93 | 1014.7 |
| 20260507171518 | 7 | 15 | 3.2 | 4.8 | 0.20 | 0.41 | 0.41 | 93 | 1014.6 |
| 20260507170017 | 8 | 15 | 1.6 | 4.8 | 0.20 | 0.36 | 0.36 | 93 | 1014.5 |
| 20260507164512 | 8 | 15 | 3.2 | 4.8 | 0.15 | 0.30 | 0.30 | 93 | 1014.4 |
| 20260507163011 | 8 | 15 | 3.2 | 4.8 | 0.10 | 0.23 | 0.23 | 93 | 1014.3 |
| 20260507161512 | 8 | 15 | 1.6 | 6.4 | 0.10 | 0.20 | 0.20 | 93 | 1014.3 |
| 20260507160014 | 8 | 13 | 1.6 | 4.8 | 0.05 | 0.15 | 0.15 | 92 | 1014.3 |
| 20260507154508 | 8 | 13 | 1.6 | 6.4 | 0.05 | 0.15 | 0.15 | 92 | 1014.3 |
| 20260507153009 | 8 | 43 | 1.6 | 6.4 | 0.05 | 0.13 | 0.13 | 92 | 1014.1 |
| 20260507151506 | 8 | 42 | 1.6 | 6.4 | 0.05 | 0.10 | 0.10 | 92 | 1014.0 |
| 20260507150007 | 7 | 43 | 0.0 | 4.8 | 0.05 | 0.10 | 0.10 | 92 | 1014.0 |
| 20260507144509 | 7 | 43 | 1.6 | 4.8 | 0.05 | 0.10 | 0.10 | 92 | 1013.9 |
| 20260507143003 | 7 | 30 | 3.2 | 6.4 | 0.03 | 0.08 | 0.08 | 92 | 1013.8 |
| 20260507141502 | 7 | 360 | 3.2 | 8.0 | 0.00 | 0.05 | 0.05 | 92 | 1013.7 |
| 20260507140000 | 7 | 360 | 3.2 | 6.4 | 0.00 | 0.05 | 0.05 | 92 | 1013.7 |
| 20260507134600 | 7 | 28 | 3.2 | 8.0 | 0.03 | 0.05 | 0.05 | 92 | 1013.6 |
| 20260507133106 | 7 | 61 | 3.2 | 12.9 | 0.03 | 0.05 | 0.05 | 91 | 1013.5 |
| 20260507131603 | 7 | 5 | 3.2 | 12.9 | 0.03 | 0.05 | 0.05 | 91 | 1013.5 |
| 20260507130109 | 7 | 46 | 1.6 | 8.0 | 0.03 | 0.05 | 0.05 | 91 | 1013.4 |
| 20260507124556 | 7 | 45 | 4.8 | 9.7 | 0.00 | 0.03 | 0.03 | 90 | 1013.3 |
| 20260507123053 | 8 | 336 | 8.0 | 14.5 | 0.00 | 0.03 | 0.03 | 88 | 1013.0 |
| 20260507121603 | 8 | 355 | 4.8 | 14.5 | 0.00 | 0.03 | 0.03 | 87 | 1012.8 |
| 20260507120049 | 8 | 50 | 8.0 | 17.7 | 0.00 | 0.03 | 0.03 | 87 | 1012.7 |
| 20260507114601 | 8 | 51 | 11.3 | 22.5 | 0.00 | 0.03 | 0.03 | 85 | 1012.5 |
| 20260507113048 | 8 | 53 | 6.4 | 17.7 | 0.00 | 0.03 | 0.03 | 85 | 1012.4 |
| 20260507111545 | 8 | 32 | 6.4 | 16.1 | 0.00 | 0.03 | 0.03 | 86 | 1012.3 |
| 20260507110044 | 8 | 56 | 6.4 | 16.1 | 0.00 | 0.03 | 0.03 | 86 | 1012.3 |
| 20260507104543 | 8 | 40 | 4.8 | 12.9 | 0.00 | 0.03 | 0.03 | 87 | 1012.2 |
| 20260507103044 | 7 | 51 | 6.4 | 14.5 | 0.00 | 0.03 | 0.03 | 88 | 1012.1 |
| 20260507101541 | 7 | 38 | 6.4 | 11.3 | 0.00 | 0.03 | 0.03 | 88 | 1012.1 |
| 20260507100041 | 7 | 45 | 4.8 | 12.9 | 0.00 | 0.03 | 0.03 | 89 | 1011.9 |
| 20260507094539 | 7 | 59 | 8.0 | 14.5 | 0.00 | 0.03 | 0.03 | 88 | 1011.8 |
| 20260507093037 | 7 | 86 | 6.4 | 16.1 | 0.00 | 0.03 | 0.03 | 89 | 1011.7 |
| 20260507091534 | 7 | 57 | 6.4 | 16.1 | 0.03 | 0.03 | 0.03 | 89 | 1011.4 |
| 20260507090037 | 7 | 42 | 9.7 | 16.1 | 0.03 | 0.03 | 0.03 | 90 | 1011.3 |